GW6547 Weather Reports


Display with metric or nautical units.
time (UTC)temp
F
wind
direction
speed
MPH
gust
MPH
rain 1hr
in
rain 24hr
in
rain mn
in
humidity
%
barometer
mb
20260508135213 62 198 2.0 2.0 0.00 0.00 0.00 67 1018.1
20260508134709 60 189 0.0 0.0 0.00 0.00 0.00 76 1018.1
20260508134207 60 180 1.0 1.0 0.00 0.00 0.00 71 1018.1
20260508133703 60 202 1.0 2.0 0.00 0.00 0.00 76 1018.2
20260508133201 59 177 0.0 1.0 0.00 0.00 0.00 78 1018.1
20260508132659 60 227 0.0 1.0 0.00 0.00 0.00 80 1018.2
20260508132156 59 180 1.0 1.0 0.00 0.00 0.00 76 1018.4
20260508131651 57 181 0.0 0.0 0.00 0.00 0.00 81 1018.2
20260508131148 56 202 1.0 2.0 0.00 0.00 0.00 82 1018.1
20260508130644 54 200 1.0 1.0 0.00 0.00 0.00 87 1018.3
20260508130142 54 194 1.0 2.0 0.00 0.00 0.00 94 1018.1
20260508125637 53 177 0.0 0.0 0.00 0.00 0.00 99 1017.8
20260508125134 53 170 0.0 0.0 0.00 0.00 0.00 99 1018.0
20260508124632 53 181 0.0 0.0 0.00 0.00 0.00 99 1018.1
20260508124129 53 180 0.0 0.0 0.00 0.00 0.00 99 1017.7
20260508123627 53 179 0.0 0.0 0.00 0.00 0.00 99 1018.0
20260508123125 53 173 0.0 0.0 0.00 0.00 0.00 99 1017.6
20260508122620 53 176 0.0 0.0 0.00 0.00 0.00 99 1017.7
20260508122118 52 179 0.0 0.0 0.00 0.00 0.00 99 1017.5
20260508121616 52 158 0.0 0.0 0.00 0.00 0.00 99 1017.5
20260508121114 51 177 0.0 0.0 0.00 0.00 0.00 99 1017.5
20260508120611 52 178 0.0 0.0 0.00 0.00 0.00 99 1017.7
20260508120109 52 172 0.0 0.0 0.00 0.00 0.00 99 1017.7
20260508115606 52 173 0.0 0.0 0.00 0.00 0.00 99 1017.5
20260508115103 52 173 0.0 0.0 0.00 0.00 0.00 99 1017.3
20260508114600 51 172 0.0 0.0 0.00 0.00 0.00 99 1017.1
20260508114056 51 172 0.0 0.0 0.00 0.00 0.00 99 1017.2
20260508113554 50 171 0.0 0.0 0.00 0.00 0.00 99 1016.9
20260508113052 49 170 0.0 0.0 0.00 0.00 0.00 99 1016.9
20260508112547 49 170 0.0 0.0 0.00 0.00 0.00 99 1016.7
20260508112045 48 171 0.0 0.0 0.00 0.00 0.00 99 1016.6
20260508111542 48 169 0.0 0.0 0.00 0.00 0.00 99 1016.6
20260508111038 48 168 0.0 0.0 0.00 0.00 0.00 99 1016.5
20260508110537 48 168 0.0 0.0 0.00 0.00 0.00 99 1016.5
20260508110032 48 167 0.0 0.0 0.00 0.00 0.00 99 1016.4
20260508105527 48 169 0.0 0.0 0.00 0.00 0.00 99 1016.4
20260508105025 48 170 0.0 0.0 0.00 0.00 0.00 99 1016.4
20260508104523 48 170 0.0 0.0 0.00 0.00 0.00 99 1016.0
20260508104019 48 170 0.0 0.0 0.00 0.00 0.00 99 1015.9
20260508103516 48 170 0.0 0.0 0.00 0.00 0.00 99 1015.8
20260508103013 48 171 0.0 0.0 0.00 0.00 0.00 99 1015.7
20260508102511 48 171 0.0 0.0 0.00 0.00 0.00 99 1015.6
20260508102008 48 174 0.0 0.0 0.00 0.00 0.00 99 1015.8
20260508101506 48 172 0.0 0.0 0.00 0.00 0.00 99 1015.5
20260508101002 48 174 0.0 0.0 0.00 0.00 0.00 99 1015.6
20260508100501 48 170 0.0 0.0 0.00 0.00 0.00 99 1015.6
20260508095957 49 165 0.0 0.0 0.00 0.00 0.00 99 1015.6
20260508095455 49 169 0.0 0.0 0.00 0.00 0.00 99 1015.5
20260508094951 49 172 0.0 0.0 0.00 0.00 0.00 99 1015.7
20260508094448 49 173 0.0 0.0 0.00 0.00 0.00 99 1015.4
20260508093945 49 172 0.0 0.0 0.00 0.00 0.00 99 1015.4
20260508093442 49 172 0.0 0.0 0.00 0.00 0.00 99 1015.6
20260508092940 49 172 0.0 0.0 0.00 0.00 0.00 99 1015.4
20260508092437 49 173 0.0 0.0 0.00 0.00 0.00 99 1015.3
20260508091936 49 172 0.0 0.0 0.00 0.00 0.00 99 1015.4
20260508091432 49 170 0.0 0.0 0.00 0.00 0.00 99 1015.2
20260508090929 49 169 0.0 0.0 0.00 0.00 0.00 99 1015.0
20260508090428 49 169 0.0 0.0 0.00 0.00 0.00 99 1015.5
20260508085923 50 171 0.0 0.0 0.00 0.00 0.00 99 1015.3
20260508085420 50 170 0.0 0.0 0.00 0.00 0.00 99 1015.2
20260508084917 50 170 0.0 0.0 0.00 0.00 0.00 99 1014.9
20260508084414 50 170 0.0 0.0 0.00 0.00 0.00 99 1015.3
20260508083912 50 166 0.0 0.0 0.00 0.00 0.00 99 1015.1
20260508083409 50 170 0.0 0.0 0.00 0.00 0.00 99 1014.9
20260508082908 50 172 0.0 0.0 0.00 0.00 0.00 99 1014.9
20260508082406 50 169 0.0 0.0 0.00 0.00 0.00 99 1014.9
20260508081904 50 171 0.0 0.0 0.00 0.00 0.00 99 1015.0
20260508081400 50 168 0.0 0.0 0.00 0.00 0.00 99 1015.0
20260508080857 50 168 0.0 0.0 0.00 0.00 0.00 99 1014.9
20260508080355 50 170 0.0 0.0 0.00 0.00 0.00 99 1014.8
20260508075851 50 170 0.0 0.0 0.00 0.00 0.00 99 1014.6
20260508075348 50 168 0.0 0.0 0.00 0.00 0.00 99 1014.6
20260508074846 51 170 0.0 0.0 0.00 0.00 0.00 99 1014.7
20260508074343 51 174 0.0 0.0 0.00 0.00 0.00 99 1014.4
20260508073840 51 171 0.0 0.0 0.00 0.00 0.00 99 1014.6
20260508073338 51 169 0.0 0.0 0.00 0.00 0.00 99 1014.6
20260508072834 51 166 0.0 0.0 0.00 0.00 0.00 99 1014.4
20260508072331 51 169 0.0 0.0 0.00 0.00 0.00 99 1014.4
20260508071828 51 169 0.0 0.0 0.00 0.00 0.00 99 1014.5
20260508071326 51 170 0.0 0.0 0.00 0.00 0.00 99 1014.5
20260508070823 51 171 0.0 0.0 0.00 0.00 0.00 99 1014.4
20260508070322 51 174 0.0 0.0 0.00 0.00 0.00 99 1014.4
20260508065819 51 169 0.0 0.0 0.00 0.00 0.00 99 1014.4
20260508065317 51 169 0.0 0.0 0.00 0.00 0.00 99 1014.2
20260508064815 52 171 0.0 0.0 0.00 0.00 0.00 99 1014.4
20260508064312 52 173 0.0 0.0 0.00 0.00 0.00 99 1014.2
20260508063809 52 172 0.0 0.0 0.00 0.00 0.00 99 1014.3
20260508063307 52 171 0.0 0.0 0.00 0.00 0.00 99 1014.5
20260508062804 52 176 0.0 0.0 0.00 0.00 0.00 99 1014.2
20260508062305 52 172 0.0 0.0 0.00 0.00 0.00 99 1014.3
20260508061758 52 175 0.0 0.0 0.00 0.00 0.00 99 1014.4
20260507230634 60 7 7.0 10.0 0.00 1.75 1.75 93 1009.2
20260507230132 60 7 7.0 10.0 0.00 1.75 1.75 93 1009.2
20260507225632 60 121 2.0 2.0 0.00 1.75 1.75 94 1009.5
20260507225128 60 204 3.0 5.0 0.00 1.75 1.75 93 1009.0
20260507224624 60 208 1.0 1.0 0.00 1.75 1.75 93 1009.4
20260507224121 60 85 2.0 2.0 0.00 1.75 1.75 93 1009.2
20260507223617 61 144 4.0 6.0 0.00 1.75 1.75 92 1009.6
20260507223114 61 191 2.0 2.0 0.00 1.75 1.75 93 1009.0
20260507222611 62 40 3.0 6.0 0.00 1.75 1.75 92 1009.3
20260507222108 62 260 4.0 6.0 0.00 1.75 1.75 92 1008.8
20260507221603 62 142 2.0 3.0 0.00 1.75 1.75 92 1008.8
20260507221100 63 194 2.0 2.0 0.00 1.75 1.75 92 1008.6
20260507220558 63 229 6.0 9.0 0.00 1.75 1.75 92 1008.8
20260507220055 64 65 4.0 6.0 0.00 1.75 1.75 92 1009.2
20260507215551 64 216 7.0 8.0 0.00 1.75 1.75 91 1007.7
20260507215049 66 343 2.0 2.0 0.00 1.75 1.75 89 1008.0
20260507214546 67 262 7.0 9.0 0.00 1.75 1.75 87 1007.5
20260507214042 68 162 1.0 2.0 0.00 1.75 1.75 85 1007.7
20260507213538 71 232 6.0 8.0 0.00 1.75 1.75 81 1007.7
20260507213036 74 111 3.0 3.0 0.00 1.75 1.75 81 1007.0
20260507212532 75 158 0.0 0.0 0.00 1.75 1.75 78 1006.3
20260507212028 75 169 0.0 0.0 0.00 1.75 1.75 76 1006.1
20260507211525 75 168 0.0 0.0 0.00 1.75 1.75 73 1006.5
20260507211021 76 164 0.0 0.0 0.00 1.75 1.75 73 1006.5
20260507210519 76 157 1.0 1.0 0.00 1.75 1.75 72 1006.3
20260507210015 77 162 0.0 0.0 0.00 1.75 1.75 71 1006.6
20260507205512 76 175 0.0 1.0 0.00 1.75 1.75 72 1007.0
20260507205008 76 154 0.0 1.0 0.00 1.75 1.75 69 1006.9
20260507204505 76 167 0.0 0.0 0.00 1.75 1.75 72 1006.9
20260507204003 76 133 1.0 1.0 0.00 1.75 1.75 73 1006.8
20260507203500 76 167 0.0 0.0 0.00 1.75 1.75 71 1006.8
20260507202957 76 183 1.0 1.0 0.00 1.75 1.75 74 1006.9
20260507202453 77 165 0.0 0.0 0.00 1.75 1.75 71 1007.2
20260507201949 78 241 2.0 3.0 0.00 1.75 1.75 69 1007.1
20260507201449 78 104 1.0 2.0 0.00 1.75 1.75 69 1007.1
20260507200947 77 142 0.0 1.0 0.00 1.75 1.75 67 1007.0
20260507200442 77 230 2.0 2.0 0.00 1.75 1.75 68 1007.2
20260507195938 78 172 1.0 1.0 0.00 1.75 1.75 67 1007.4
20260507195436 78 128 1.0 1.0 0.00 1.75 1.75 67 1007.2
20260507194933 78 109 1.0 2.0 0.00 1.75 1.75 68 1007.4
20260507194430 78 183 0.0 0.0 0.00 1.75 1.75 67 1007.2
20260507193925 78 166 2.0 2.0 0.00 1.75 1.75 70 1007.5
20260507193423 77 156 0.0 1.0 0.00 1.75 1.75 74 1007.7
20260507192919 76 167 0.0 0.0 0.00 1.75 1.75 73 1007.8
20260507192415 76 10 1.0 1.0 0.00 1.75 1.75 71 1008.1
20260507191913 77 71 2.0 3.0 0.00 1.75 1.75 74 1007.7
20260507191409 75 142 0.0 1.0 0.00 1.75 1.75 73 1008.0
20260507190905 76 121 0.0 1.0 0.00 1.75 1.75 76 1008.1
20260507190403 76 170 0.0 0.0 0.00 1.75 1.75 77 1008.3
20260507185902 75 85 3.0 3.0 0.00 1.75 1.75 74 1008.1
20260507185359 75 178 0.0 0.0 0.00 1.75 1.75 75 1008.2
20260507184855 75 151 0.0 1.0 0.00 1.75 1.75 75 1008.2
20260507141432 66 169 0.0 0.0 0.05 1.68 1.68 99 1009.4
20260507140930 66 169 0.0 0.0 0.05 1.68 1.68 99 1009.4
20260507140426 66 176 0.0 1.0 0.07 1.67 1.67 99 1009.5
20260507135924 65 177 0.0 0.0 0.07 1.67 1.67 99 1009.4